Date String (YYYY-MM-DD hh:mm:ss) UTC,Instrument flags,Ambient pressure (hPa),Sample flow (lpm),Bypass flow (lpm),Sample temperature (°C),Ambient temperature (°C),ASC tube jacket temperature (°C),LED temperature (°C),Box temperature (°C),Sample RH (%),Span deviation,Mass concentration (μg/m³),Mass concentration (μg/m³),Mass concentration (μg/m³)
DateTimeUTC,F1_M11,P_M11,Q1_M11,Q2_M11,T1_M11,T2_M11,T3_M11,T4_M11,T5_M11,U1_M11,ZSPAN_M11,X0_M11,X2_M11,X1_M11
2022-09-14 12:00:00,,0822.5,5.00,0.00,30.5,29.1,00.0,39.3,32.3,17.1,0000.3,0015.41,0009.15,0008.23
2022-09-14 12:01:00,,0822.4,5.01,0.00,30.5,29.1,00.0,39.3,32.3,17.6,0000.6,0015.78,0008.96,0008.08
2022-09-14 12:02:00,,0822.4,4.99,0.00,30.5,29.1,00.0,39.3,32.3,17.7,0000.9,0015.61,0008.73,0007.93
2022-09-14 12:03:00,,0822.4,5.01,0.00,30.5,29.1,00.0,39.3,32.3,17.7,0000.6,0014.74,0008.53,0007.76
2022-09-14 12:04:00,,0822.4,4.99,0.00,30.5,29.1,00.0,39.3,32.3,17.7,0000.8,0014.59,0008.36,0007.59
2022-09-14 12:05:00,,0822.4,5.00,0.00,30.5,29.1,00.0,39.3,32.3,17.6,0001.1,0015.27,0008.21,0007.43
2022-09-14 12:06:00,,0822.4,5.01,0.00,30.5,29.1,00.0,39.3,32.3,17.6,0001.2,0015.61,0008.12,0007.31
2022-09-14 12:07:00,,0822.4,4.99,0.00,30.5,29.1,00.0,39.3,32.3,17.5,0001.7,0015.08,0008.07,0007.22
2022-09-14 12:08:00,,0822.4,5.02,0.00,30.6,29.1,00.0,39.3,32.4,17.4,0001.7,0014.60,0008.00,0007.12
2022-09-14 12:09:00,,0822.4,4.99,0.00,30.6,29.2,00.0,39.3,32.4,17.3,0001.9,0014.60,0007.90,0007.03
2022-09-14 12:10:00,,0822.4,5.01,0.00,30.6,29.2,00.0,39.3,32.4,17.3,0002.5,0014.47,0007.80,0006.95
2022-09-14 12:11:00,,0822.4,4.99,0.00,30.6,29.2,00.0,39.3,32.4,17.2,0002.6,0014.29,0007.68,0006.86
2022-09-14 12:12:00,,0822.4,5.01,0.00,30.6,29.2,00.0,39.4,32.4,17.2,0002.2,0013.53,0007.66,0006.82
2022-09-14 12:13:00,,0822.4,4.99,0.00,30.6,29.2,00.0,39.4,32.4,17.4,0001.8,0013.76,0007.66,0006.80
2022-09-14 12:14:00,,0822.4,5.01,0.00,30.6,29.2,00.0,39.4,32.4,17.6,0002.0,0014.53,0007.71,0006.80
2022-09-14 12:15:00,,0822.4,4.99,0.00,30.6,29.2,00.0,39.4,32.4,17.4,0002.0,0014.89,0007.75,0006.81
2022-09-14 12:16:00,,0822.4,5.00,0.00,30.6,29.2,00.0,39.4,32.4,17.2,0001.9,0014.20,0007.78,0006.81
2022-09-14 12:17:00,,0822.4,5.01,0.00,30.6,29.2,00.0,39.4,32.4,17.0,0001.9,0013.40,0007.76,0006.81
2022-09-14 12:18:00,,0822.4,4.99,0.00,30.6,29.2,00.0,39.4,32.4,17.0,0002.2,0014.05,0007.76,0006.82
2022-09-14 12:19:00,,0822.4,5.01,0.00,30.7,29.2,00.0,39.4,32.4,17.2,0002.3,0014.17,0007.75,0006.85
2022-09-14 12:20:00,,0822.4,4.99,0.00,30.7,29.2,00.0,39.4,32.4,17.5,0002.7,0014.32,0007.82,0006.86
2022-09-14 12:21:00,,0822.4,4.99,0.00,30.7,29.2,00.0,39.4,32.4,17.1,0002.2,0014.26,0007.84,0006.86
2022-09-14 12:22:00,,0822.4,5.01,0.00,30.7,29.3,00.0,39.4,32.5,17.0,0001.2,0014.38,0007.88,0006.87
2022-09-14 12:23:00,,0822.4,4.99,0.00,30.7,29.3,00.0,39.4,32.5,17.0,0001.7,0015.19,0007.92,0006.88
2022-09-14 12:24:00,,0822.5,5.01,0.00,30.7,29.3,00.0,39.5,32.5,17.2,0002.0,0014.93,0007.96,0006.90
2022-09-14 12:25:00,,0822.5,4.99,0.00,30.7,29.3,00.0,39.5,32.5,17.2,0001.9,0014.10,0007.92,0006.91
2022-09-14 12:26:00,,0822.5,5.00,0.00,30.7,29.4,00.0,39.5,32.5,17.1,0001.8,0013.73,0007.85,0006.92
2022-09-14 12:27:00,,0822.6,5.00,0.00,30.7,29.4,00.0,39.5,32.5,17.0,0001.9,0013.92,0007.83,0006.95
2022-09-14 12:28:00,,0822.5,4.99,0.00,30.7,28.5,00.0,39.5,32.5,17.2,0001.3,0015.07,0007.84,0006.96
2022-09-14 12:29:00,,0822.6,5.01,0.00,30.7,27.2,00.0,39.4,32.4,17.0,0000.3,0014.67,0007.80,0006.96
2022-09-14 12:30:00,,0822.5,4.99,0.00,30.6,27.0,00.0,39.3,32.3,17.0,-000.2,0014.66,0007.84,0006.96
2022-09-14 12:31:00,,0822.5,5.00,0.00,30.5,27.2,00.0,39.3,32.0,17.3,-000.7,0015.70,0007.82,0006.98
2022-09-14 12:32:00,,0822.5,5.00,0.00,30.4,27.5,00.0,39.3,32.0,17.5,-000.6,0016.23,0007.85,0007.01
2022-09-14 12:33:00,,0822.4,5.00,0.00,30.4,27.8,00.0,39.2,32.0,17.6,-000.1,0016.59,0007.88,0007.03
2022-09-14 12:34:00,,0822.5,5.01,0.00,30.4,28.0,00.0,39.2,32.0,17.6,-000.2,0016.41,0007.87,0007.04
2022-09-14 12:35:00,,0822.4,5.00,0.00,30.3,28.2,00.0,39.2,32.0,17.8,-000.3,0016.55,0007.85,0007.04
2022-09-14 12:36:00,,0822.4,4.99,0.00,30.3,28.4,00.0,39.2,32.0,17.9,-000.1,0016.52,0007.85,0007.06
2022-09-14 12:37:00,,0822.4,5.01,0.00,30.3,28.5,00.0,39.2,32.0,17.7,0000.1,0016.69,0007.90,0007.06
2022-09-14 12:38:00,,0822.5,4.99,0.00,30.3,28.6,00.0,39.2,32.0,17.8,-000.3,0016.97,0007.97,0007.08
2022-09-14 12:39:00,,0822.5,5.01,0.00,30.3,28.7,00.0,39.1,32.1,17.8,0000.4,0015.93,0007.99,0007.10
2022-09-14 12:40:00,,0822.5,4.99,0.00,30.3,28.8,00.0,39.1,32.1,17.7,0000.7,0015.60,0008.02,0007.14
2022-09-14 12:41:00,,0822.5,5.00,0.00,30.3,28.8,00.0,39.1,32.1,17.8,0001.0,0015.90,0008.01,0007.15
2022-09-14 12:42:00,,0822.5,4.99,0.00,30.3,28.9,00.0,39.1,32.1,17.7,0001.1,0014.59,0008.00,0007.13
2022-09-14 12:43:00,,0822.6,5.00,0.00,30.4,28.9,00.0,39.2,32.1,17.7,0001.0,0013.94,0007.92,0007.10
2022-09-14 12:44:00,,0822.6,5.01,0.00,30.4,29.0,00.0,39.2,32.1,17.8,0001.0,0014.07,0007.90,0007.09
2022-09-14 12:45:00,,0822.6,4.99,0.00,30.4,29.0,00.0,39.2,32.2,17.7,0001.1,0014.10,0007.91,0007.08
2022-09-14 12:46:00,,0822.6,5.01,0.00,30.4,29.0,00.0,39.2,32.2,17.7,0001.0,0013.88,0007.96,0007.07
2022-09-14 12:47:00,,0822.6,4.99,0.00,30.4,29.0,00.0,39.2,32.2,17.6,0001.2,0013.90,0007.98,0007.06
2022-09-14 12:48:00,,0822.6,4.99,0.00,30.4,29.1,00.0,39.2,32.2,17.6,0001.0,0013.78,0007.96,0007.07
2022-09-14 12:49:00,,0822.6,5.01,0.00,30.5,29.1,00.0,39.2,32.3,17.6,0001.2,0013.32,0007.89,0007.06
2022-09-14 12:50:00,,0822.6,4.99,0.00,30.5,29.2,00.0,39.2,32.3,17.6,0000.9,0013.28,0007.89,0007.05
2022-09-14 12:51:00,,0822.6,5.01,0.00,30.5,29.2,00.0,39.2,32.3,17.6,0001.1,0013.32,0007.89,0007.04
2022-09-14 12:52:00,,0822.5,5.00,0.00,30.5,29.2,00.0,39.2,32.3,17.7,0001.5,0012.89,0007.85,0007.01
2022-09-14 12:53:00,,0822.6,5.01,0.00,30.5,29.2,00.0,39.3,32.3,17.7,0001.8,0012.90,0007.84,0007.00
2022-09-14 12:54:00,,0822.6,4.99,0.00,30.5,29.2,00.0,39.3,32.3,17.8,0001.9,0013.08,0007.89,0007.01
2022-09-14 12:55:00,,0822.6,5.00,0.00,30.5,29.2,00.0,39.3,32.3,17.8,0002.0,0013.55,0007.95,0007.04
2022-09-14 12:56:00,,0822.7,4.99,0.00,30.5,29.2,00.0,39.3,32.3,17.7,0001.9,0013.50,0008.06,0007.06
2022-09-14 12:57:00,,0822.6,5.01,0.00,30.6,29.2,00.0,39.3,32.4,17.6,0002.0,0013.99,0008.02,0007.06
2022-09-14 12:58:00,,0822.6,4.99,0.00,30.6,29.2,00.0,39.3,32.4,17.6,0001.9,0014.44,0007.96,0007.05
2022-09-14 12:59:00,,0822.7,5.01,0.00,30.6,29.2,00.0,39.3,32.4,17.7,0001.7,0014.27,0007.92,0007.02
